Location: Dal�� Lhota
(48.7500°N, 14.0167°E)
Time: 08:09:19
(UTC+00:00)

Explorer 7 - Pass Details

Date: 08 August 2021
Orbit: 484 x 676 km, 50.3° (Epoch: 21 September)

Event Time Altitude Azimuth Distance (km) Brightness Sun altitude
Rises 05:46:06 0° 286° (WNW) 2,583 9.7 18.0°
Reaches altitude 10° 05:48:14 10° 285° (WNW) 1,717 8.8 18.3°
Maximum altitude 05:52:07 81° 199° (SSW) 533 7.0 19.0°
Drops below altitude 10° 05:56:13 10° 112° (ESE) 1,808 10.9 19.6°
Sets 05:58:31 0° 111° (ESE) 2,734 11.6 20.0°
